Regional Weather Roundup
Issued by NWS

Home | Current Version | Previous Version | Graphics & Text | Print | Product List | Glossary On
Versions: 1 2 3 4 5 6 7 8 9 10 11 12 13 14 15 16 17 18 19 20 21 22 23 24 25 26 27 28 29 30 31 32 33 34 35 36 37 38 39 40 41 42 43 44 45 46 47 48 49 50
000
ASUS43 KDTX 280710
RWRMI
MICHIGAN HOURLY REGIONAL WEATHER ROUNDUP
NATIONAL WEATHER SERVICE DETROIT/PONTIAC MI
200 AM EST WED JAN 28 2015

NOTE: "FAIR" INDICATES FEW OR NO CLOUDS BELOW 12,000 FEET WITH NO
SIGNIFICANT WEATHER AND/OR OBSTRUCTION TO VISIBILITY.

MIZ047>049-052>055-059>063-066>070-074>076-081>083-280800-
SOUTHEAST LOWER MICHIGAN

CITY           SKY/WX    TMP DP  RH WIND       PRES   REMARKS
ADRIAN         PTCLDY     9   5  84 N3        30.25S
ALMA           PTCLDY     7   5  91 CALM      30.24F
ANN ARBOR        N/A      4   1  88 CALM      30.24S
BAD AXE        PTCLDY     4   1  89 CALM      30.22F
DETROIT CITY   CLEAR     19   9  65 NW5       30.24R
DETROIT        CLEAR     14   9  80 W3        30.26R
FLINT          CLEAR      8   4  83 CALM      30.24F
GROSSE ILE     CLEAR     16  10  79 NW6       30.24R
HILLSDALE      PTCLDY     8   5  89 CALM      30.20F
HOWELL         CLEAR      8   6  90 CALM      30.22F

CITY           SKY/WX    TMP DP  RH WIND       PRES   REMARKS
JACKSON        CLEAR      9   5  84 CALM      30.23S
LAMBERTVILLE   PTCLDY    12   7  79 CALM      30.26R
LANSING        PTCLDY     9   6  88 CALM      30.24F
LAPEER         NOT AVBL
MASON          CLEAR      9   6  88 CALM      30.23S
MONROE         CLEAR     14  10  85 NW3       30.24S
MT. CLEMENS    CLEAR     15   9  77 W6        30.21R
PONTIAC        CLEAR     10   6  84 CALM      30.21S
PORT HOPE        N/A     19   9  65 CALM      30.20F
PORT HURON     CLEAR      7   3  85 CALM      30.23R
TRI CITIES     PTCLDY    13   8  81 CALM      30.25F
YPSILANTI      CLEAR     16   6  65 VRB3      30.25S
$$
MIZ043>046-050>051-056>058-064>065-071>073-077>080-280800-
SOUTHWEST LOWER MICHIGAN

CITY           SKY/WX    TMP DP  RH WIND       PRES   REMARKS
BATTLE CREEK   PTCLDY    12   6  77 CALM      30.23S
BENTON HARBOR  PTCLDY    15  12  88 SE3       30.26R
BIG RAPIDS     PTCLDY     6   3  88 CALM      30.22R
COLDWATER      PTCLDY     9   6  90 CALM      30.24R
HOLLAND        PTCLDY    16  10  77 CALM      30.25S
GRAND RAPIDS   PTCLDY    12   7  80 S3        30.23S
KALAMAZOO      CLEAR     11   7  84 CALM      30.24S
MARSHALL       CLEAR      7   4  87 CALM      30.23S
MUSKEGON       MOCLDY    15  10  80 CALM      30.26S
$$
MIZ016>042-280800-
NORTHERN LOWER MICHIGAN

CITY           SKY/WX    TMP DP  RH WIND       PRES   REMARKS
ALPENA         MOCLDY    -3  -7  82 CALM      30.23S
BEAVER ISLAND  PTCLDY     3  -1  84 CALM      30.26R
BELLAIRE       PTCLDY     2  -2  85 CALM      30.27R
CADILLAC       PTCLDY     1  -4  81 CALM      30.19R
CHARLEVOIX     PTCLDY     4   1  88 CALM      30.28R
FRANKFORT      MOSUNNY   12   8  86 CALM      30.26R
GAYLORD        MOCLDY    -1  -3  91 W3        30.18R
GRAYLING       PTCLDY    -5 -10  78 CALM      30.20S
HARBOR SPRINGS PTCLDY     1  -3  80 CALM      30.24R
HOUGHTON LAKE  PTCLDY     0  -5  79 CALM      30.20S
MANISTEE       PTCLDY     9   3  78 CALM      30.26S
OSCODA         PTCLDY     4  -1  79 CALM      30.23S
PELLSTON       MOCLDY    -5  -9  83 CALM      30.26R
TRAVERSE CITY  PTCLDY     7   3  84 CALM      30.25R
$$
MIZ007>008-015-280800-
EASTERN UPPER MICHIGAN

CITY           SKY/WX    TMP DP  RH WIND       PRES   REMARKS
KINROSS        MOCLDY     3  -2  78 W6        30.23R
MACKINAC ISLAN MOCLDY     7  -2  66 W6        30.24R
NEWBERRY       MOCLDY     0  -3  88 SW5       30.22S
S. S. MARIE    PTCLDY     2  -4  76 N3        30.23R
$$
MIZ004>006-011>014-085-280800-
CENTRAL UPPER MICHIGAN

CITY           SKY/WX    TMP DP  RH WIND       PRES   REMARKS
MANISTIQUE     CLOUDY     7   4  90 CALM      30.24S
ESCANABA       CLOUDY    21  16  79 SW3       30.25S
MENOMINEE      CLOUDY    19  16  86 SW6       30.24F
SAWYER-GWINN   CLOUDY    20  17  86 SW6       30.18R
$$
MIZ001>003-009>011-084-280800-
WESTERN UPPER MICHIGAN

CITY           SKY/WX    TMP DP  RH WIND       PRES   REMARKS
IRON MOUNTAIN  CLOUDY    22  17  81 S6        30.18S
HOUGHTON       CLOUDY    24  18  77 S6        30.14S
COPPER HARBOR    N/A     27  19  72 W7        30.16F
IRONWOOD       MOCLDY    25  19  80 S5        30.08F
$$

ABBREVIATIONS USED IN REMARKS
   TC - TEMPERATURE IN CELSIUS
  WCI - WIND CHILL INDEX
   HX - HEAT INDEX
  VSB - VISIBILITY



USA.gov is the U.S. government's official web portal to all federal, state and local government web resources and services.